Skip Page Navigation
NASA JPL Caltech
NASA Logo - Jet Propulsion Laboratory + View the NASA Portal
+ Center for Near-Earth Object Studies
JPL Home Earth Solar System Stars & Galaxies Technology
JPL Solar System Dynamics
BODIES ORBITS EPHEMERIDES TOOLS PHYSICAL DATA DISCOVERY FAQ SITE MAP
JPL Small-Body Database Browser
Search: [ help ]  
72592 (2001 FQ5)
Classification: Main-belt Asteroid          SPK-ID: 2072592
Ephemeris | Orbit Diagram | Orbital Elements | Mission Design | Physical Parameters | Discovery Circumstances | Close-Approach Data ]

[ show orbit diagram ]
Orbital Elements at Epoch 2459200.5 (2020-Dec-17.0) TDB
Reference: JPL 21 (heliocentric ecliptic J2000)
 Element Value Uncertainty (1-sigma)   Units 
e .09699674864173378 3.8294e-08  
a 2.755124830428826 1.5854e-08 au
q 2.487886679775122 1.0633e-07 au
i 8.44218942084526 4.7684e-06 deg
node 341.749898632784 3.0643e-05 deg
peri 159.8892013709263 4.0466e-05 deg
M 150.5843828632097 2.5822e-05 deg
tp 2458501.804766031976
(2019-Jan-18.30476603)
0.00011903 TDB
period 1670.361025797595
4.57
1.4418e-05
3.947e-08
d
yr
n .2155222700003435 1.8603e-09 deg/d
Q 3.022362981082531 1.7392e-08 au
  Orbit Determination Parameters
   # obs. used (total)      958  
   data-arc span      7974 days (21.83 yr)  
   first obs. used      1998-08-17  
   last obs. used      2020-06-16  
   planetary ephem.      DE441  
   SB-pert. ephem.      SB441-N16  
   condition code      0  
   norm. resid. RMS      .51712  
   source      ORB  
   producer      Otto Matic  
   solution date      2021-Apr-13 13:02:56  

Additional Information
 Earth MOID = 1.50182 au 
 Jupiter MOID = 1.98483 au 
 T_jup = 3.321 
[ show covariance matrix ]

Ephemeris | Orbit Diagram | Orbital Elements | Mission Design | Physical Parameters | Discovery Circumstances | Close-Approach Data ]

Physical Parameter Table
Parameter Symbol Value Units Sigma Reference Notes
absolute magnitude H 14.64   n/a E2021B10  
diameter diameter 3.785 km 0.287 urn:nasa:pds:neowise_diameters_albedos::2.0[mainbelt] (http://adsabs.harvard.edu/abs/2011ApJ...741...68M)  
geometric albedo albedo 0.178   0.025 urn:nasa:pds:neowise_diameters_albedos::2.0[mainbelt] (http://adsabs.harvard.edu/abs/2011ApJ...741...68M)  

72592 (2001 FQ5)          Discovered 2001-Mar-18 by LINEAR at Socorro
Reference: 20031109/Numbers.arcLast Updated: 2004-04-19

[ show close-approach data ]
Alternate Designations
 2001 FQ5 = 1999 XP239 
Ephemeris | Orbit Diagram | Orbital Elements | Mission Design | Physical Parameters | Discovery Circumstances | Close-Approach Data ]
ABOUT SSD CREDITS/AWARDS PRIVACY/COPYRIGHT GLOSSARY LINKS
FirstGov 2021-Jun-20 01:15 UT
(server date/time)  
NASA Home Page
Site Manager:   Ryan S. Park
Webmaster  Alan B. Chamberlin